Orbital Elements at Epoch 2459200.5 (2020-Dec-17.0) TDB
Reference: JPL 23 (heliocentric ecliptic J2000)
Element | Value | Uncertainty (1-sigma) | Units |
e | .1458382739964481 | 4.236e-08 | |
a | 2.197747680644212 | 7.0637e-09 | au |
q | 1.877231952219363 | 9.3745e-08 | au |
i | 4.180915331107893 | 5.0275e-06 | deg |
node | 351.1879720369695 | 5.1642e-05 | deg |
peri | 63.42177408271557 | 5.3856e-05 | deg |
M | 204.3563529373979 | 1.5586e-05 | deg |
tp | 2459715.010296516267 (2022-May-15.51029652) | 5.264e-05 | TDB |
period | 1190.049900792652 3.26 | 5.7373e-06 1.571e-08 | d yr |
n | .3025083231889824 | 1.4584e-09 | deg/d |
Q | 2.518263409069061 | 8.0938e-09 | au |
|
| | Orbit Determination Parameters
Additional Information
|